CCA419 ZUCK-VHHH

Flight info

Callsign CCA419
Flight time N/A
Altitude 37100
Route VILUS6Y VILUS W180 LIDMA W182 LAGEX G586 SJG B330 POU R473 SIERA
Aircraft B38M/M-SDE1FGHILORVWXY/HB1

Departure

Time 2026-05-06 19:45
Airport Chongqing Jiangbei International Airport (ZUCK)

Arrival

Time N/A
Airport Hong Kong International Airport (VHHH)
Time Latitude Longitude Altitude Speed Heading
2026-05-06 18:51 29.71706 106.65157 1354 ft 0 kts 274°
2026-05-06 19:32 29.71706 106.65163 1354 ft 3 kts 274°
2026-05-06 19:32 29.71704 106.65191 1356 ft 2 kts 274°
2026-05-06 19:32 29.71698 106.65216 1353 ft 4 kts 318°
2026-05-06 19:33 29.71675 106.65228 1352 ft 4 kts 355°
2026-05-06 19:33 29.71665 106.65228 1352 ft 1 kts 359°
2026-05-06 19:33 29.71664 106.65228 1352 ft 0 kts 359°
2026-05-06 19:36 29.71665 106.65228 1352 ft 1 kts 359°
2026-05-06 19:37 29.71685 106.65228 1354 ft 7 kts 359°
2026-05-06 19:37 29.71768 106.65237 1354 ft 17 kts
2026-05-06 19:37 29.71908 106.65280 1354 ft 22 kts 20°
2026-05-06 19:37 29.71997 106.65346 1351 ft 8 kts 77°
2026-05-06 19:38 29.71982 106.65403 1351 ft 9 kts 112°
2026-05-06 19:38 29.71953 106.65497 1348 ft 17 kts 108°
2026-05-06 19:38 29.71908 106.65662 1346 ft 25 kts 107°
2026-05-06 19:38 29.71860 106.65841 1343 ft 28 kts 107°
2026-05-06 19:39 29.71814 106.66031 1340 ft 17 kts 86°
2026-05-06 19:39 29.71910 106.66102 1338 ft 18 kts 17°
2026-05-06 19:39 29.72045 106.66149 1336 ft 23 kts 17°
2026-05-06 19:39 29.72223 106.66211 1335 ft 29 kts 16°
2026-05-06 19:40 29.72412 106.66277 1334 ft 29 kts 16°
2026-05-06 19:40 29.72598 106.66345 1333 ft 28 kts 15°
2026-05-06 19:40 29.72793 106.66409 1331 ft 30 kts 18°
2026-05-06 19:40 29.72994 106.66480 1330 ft 29 kts 16°
2026-05-06 19:41 29.73183 106.66543 1328 ft 28 kts 16°
2026-05-06 19:41 29.73372 106.66608 1326 ft 29 kts 16°
2026-05-06 19:41 29.73559 106.66670 1324 ft 28 kts 15°
2026-05-06 19:41 29.73752 106.66739 1323 ft 30 kts 17°
2026-05-06 19:42 29.73954 106.66806 1321 ft 31 kts 15°
2026-05-06 19:42 29.74151 106.66875 1320 ft 29 kts 17°
2026-05-06 19:42 29.74349 106.66941 1319 ft 30 kts 16°
2026-05-06 19:42 29.74554 106.67017 1317 ft 30 kts 18°
2026-05-06 19:43 29.74697 106.67068 1315 ft 18 kts 16°
2026-05-06 19:43 29.74724 106.67166 1314 ft 16 kts 108°
2026-05-06 19:43 29.74681 106.67258 1314 ft 10 kts 157°
2026-05-06 19:43 29.74610 106.67242 1314 ft 12 kts 198°
2026-05-06 19:44 29.74409 106.67165 1316 ft 58 kts 198°
2026-05-06 19:44 29.73842 106.66976 1320 ft 110 kts 197°
2026-05-06 19:44 29.72965 106.66673 1330 ft 151 kts 196°
2026-05-06 19:44 29.71887 106.66315 1471 ft 169 kts 196°
2026-05-06 19:45 29.70713 106.66020 1805 ft 179 kts 191°
2026-05-06 19:45 29.69466 106.65930 2267 ft 178 kts 184°
2026-05-06 19:45 29.68196 106.65876 2704 ft 191 kts 184°
2026-05-06 19:45 29.66791 106.65824 3098 ft 212 kts 184°
2026-05-06 19:46 29.65242 106.65774 3489 ft 236 kts 183°
2026-05-06 19:46 29.63529 106.65723 3843 ft 263 kts 182°
2026-05-06 19:46 29.61691 106.65674 4525 ft 273 kts 182°
2026-05-06 19:46 29.59755 106.65634 5093 ft 289 kts 181°
2026-05-06 19:47 29.57698 106.65605 5970 ft 291 kts 178°
2026-05-06 19:47 29.55779 106.66156 6898 ft 288 kts 152°
2026-05-06 19:47 29.53997 106.67303 7694 ft 294 kts 149°
2026-05-06 19:47 29.52208 106.68448 8560 ft 295 kts 149°
2026-05-06 19:48 29.50422 106.69594 9293 ft 301 kts 149°
2026-05-06 19:48 29.48590 106.70773 10155 ft 300 kts 150°
2026-05-06 19:48 29.46701 106.71981 10607 ft 318 kts 150°
2026-05-06 19:48 29.44713 106.73260 10901 ft 338 kts 151°
2026-05-06 19:49 29.42609 106.74613 11300 ft 353 kts 151°
2026-05-06 19:49 29.40439 106.76007 11854 ft 361 kts 152°
2026-05-06 19:49 29.38242 106.77418 12655 ft 362 kts 152°
2026-05-06 19:49 29.36059 106.78820 13416 ft 366 kts 152°
2026-05-06 19:50 29.33832 106.80247 14105 ft 370 kts 152°
2026-05-06 19:50 29.31576 106.81692 14784 ft 373 kts 153°
2026-05-06 19:50 29.29290 106.83156 15372 ft 380 kts 153°
2026-05-06 19:50 29.26980 106.84637 16048 ft 383 kts 154°
2026-05-06 19:51 29.24641 106.86135 16687 ft 387 kts 154°
2026-05-06 19:51 29.22275 106.87649 17315 ft 391 kts 154°
2026-05-06 19:51 29.19891 106.89173 17911 ft 395 kts 154°
2026-05-06 19:51 29.17471 106.90720 18475 ft 399 kts 154°
2026-05-06 19:52 29.15039 106.92274 18991 ft 403 kts 154°
2026-05-06 19:52 29.12580 106.93845 19511 ft 406 kts 155°
2026-05-06 19:52 29.09996 106.95097 19955 ft 403 kts 171°
2026-05-06 19:52 29.07234 106.95446 20423 ft 399 kts 183°
2026-05-06 19:53 29.04439 106.95501 20842 ft 403 kts 184°
2026-05-06 19:53 29.01645 106.95518 21321 ft 406 kts 184°
2026-05-06 19:53 28.98807 106.95511 21763 ft 409 kts 184°
2026-05-06 19:53 28.95954 106.95489 22271 ft 411 kts 184°
2026-05-06 19:54 28.93081 106.95459 22751 ft 414 kts 184°
2026-05-06 19:54 28.90187 106.95425 23204 ft 417 kts 184°
2026-05-06 19:54 28.87273 106.95390 23632 ft 420 kts 184°
2026-05-06 19:54 28.84351 106.95356 24006 ft 422 kts 184°
2026-05-06 19:55 28.81406 106.95320 24378 ft 424 kts 184°
2026-05-06 19:55 28.78442 106.95285 24749 ft 426 kts 184°
2026-05-06 19:55 28.75477 106.95250 25143 ft 428 kts 184°
2026-05-06 19:55 28.72487 106.95214 25518 ft 430 kts 184°
2026-05-06 19:56 28.69484 106.95178 25927 ft 432 kts 184°
2026-05-06 19:56 28.66477 106.95142 26305 ft 434 kts 184°
2026-05-06 19:56 28.63442 106.95106 26653 ft 437 kts 185°
2026-05-06 19:56 28.60383 106.95068 26977 ft 440 kts 184°
2026-05-06 19:57 28.57326 106.95033 27377 ft 441 kts 185°
2026-05-06 19:57 28.54245 106.94996 27703 ft 444 kts 185°
2026-05-06 19:57 28.51146 106.94960 28035 ft 446 kts 184°
2026-05-06 19:57 28.48043 106.94923 28395 ft 448 kts 185°
2026-05-06 19:58 28.44910 106.94886 28676 ft 451 kts 185°
2026-05-06 19:58 28.41762 106.94849 29029 ft 452 kts 185°
2026-05-06 19:58 28.38604 106.94811 29353 ft 455 kts 185°
2026-05-06 19:58 28.35436 106.94774 29665 ft 458 kts 185°
2026-05-06 19:59 28.32282 106.94736 29989 ft 459 kts 185°
2026-05-06 19:59 28.29035 106.94697 30265 ft 462 kts 185°
2026-05-06 19:59 28.25875 106.94660 30530 ft 464 kts 185°
2026-05-06 19:59 28.22631 106.94768 30796 ft 468 kts 181°
2026-05-06 20:00 28.20436 106.94898 30984 ft 469 kts 182°
2026-05-06 20:00 28.16109 106.95129 31321 ft 471 kts 182°
2026-05-06 20:00 28.12825 106.95294 31603 ft 472 kts 183°
2026-05-06 20:00 28.09549 106.95456 31930 ft 472 kts 183°
2026-05-06 20:01 28.06261 106.95616 32168 ft 473 kts 183°
2026-05-06 20:01 28.04046 106.95732 32336 ft 473 kts 183°
2026-05-06 20:01 28.00787 106.95899 32590 ft 474 kts 183°
2026-05-06 20:01 27.97467 106.96077 33081 ft 470 kts 183°
2026-05-06 20:02 27.94205 106.96260 33446 ft 470 kts 183°
2026-05-06 20:02 27.90979 106.96433 33828 ft 469 kts 184°
2026-05-06 20:02 27.87677 106.96608 34126 ft 469 kts 184°
2026-05-06 20:02 27.84457 106.96778 34339 ft 471 kts 184°
2026-05-06 20:03 27.81181 106.96951 34611 ft 471 kts 184°
2026-05-06 20:03 27.77915 106.97123 34890 ft 471 kts 184°
2026-05-06 20:03 27.74636 106.97296 35165 ft 471 kts 184°
2026-05-06 20:03 27.71357 106.97469 35447 ft 471 kts 184°
2026-05-06 20:04 27.68087 106.97641 35716 ft 471 kts 184°
2026-05-06 20:04 27.64809 106.97813 35988 ft 471 kts 184°
2026-05-06 20:04 27.61522 106.97986 36275 ft 471 kts 184°
2026-05-06 20:04 27.58262 106.98158 36520 ft 471 kts 184°
2026-05-06 20:05 27.54988 106.98329 36754 ft 471 kts 184°
2026-05-06 20:05 27.51736 106.98500 37015 ft 471 kts 184°
2026-05-06 20:05 27.48456 106.98673 37122 ft 472 kts 184°
2026-05-06 20:05 27.45186 106.98850 37088 ft 470 kts 184°
2026-05-06 20:06 27.38661 106.99202 37103 ft 469 kts 184°
2026-05-06 20:06 27.32143 106.99554 37105 ft 469 kts 184°
2026-05-06 20:07 27.25641 106.99904 37108 ft 469 kts 184°
2026-05-06 20:07 27.19109 107.00256 37116 ft 469 kts 184°
2026-05-06 20:08 27.12587 107.00606 37114 ft 470 kts 184°
2026-05-06 20:08 27.06054 107.00957 37115 ft 469 kts 184°
2026-05-06 20:09 26.99558 107.01923 37091 ft 482 kts 165°
2026-05-06 20:09 26.96522 107.03597 37120 ft 493 kts 150°
2026-05-06 20:09 26.93886 107.06090 37114 ft 502 kts 136°
2026-05-06 20:10 26.91800 107.09258 37097 ft 509 kts 120°
2026-05-06 20:10 26.90483 107.12951 37105 ft 513 kts 106°
2026-05-06 20:10 26.88533 107.20665 37084 ft 515 kts 107°
2026-05-06 20:11 26.86562 107.28384 37051 ft 516 kts 107°
2026-05-06 20:11 26.84591 107.36123 37111 ft 517 kts 107°
2026-05-06 20:12 26.82634 107.43793 37089 ft 514 kts 107°
2026-05-06 20:12 26.80670 107.51466 37066 ft 514 kts 107°
2026-05-06 20:13 26.78699 107.59154 37060 ft 514 kts 107°
2026-05-06 20:13 26.76714 107.66831 37067 ft 514 kts 108°
2026-05-06 20:14 26.74723 107.74510 37033 ft 513 kts 108°
2026-05-06 20:14 26.72747 107.82139 37024 ft 509 kts 107°
2026-05-06 20:15 26.70748 107.89744 37033 ft 509 kts 108°
2026-05-06 20:15 26.68767 107.97377 37047 ft 511 kts 108°
2026-05-06 20:16 26.66774 108.04995 37042 ft 511 kts 108°
2026-05-06 20:16 26.64777 108.12609 37042 ft 510 kts 108°
2026-05-06 20:17 26.62772 108.20233 37044 ft 511 kts 108°
2026-05-06 20:17 26.60766 108.27844 37031 ft 510 kts 108°
2026-05-06 20:18 26.58761 108.35445 37042 ft 511 kts 107°
2026-05-06 20:18 26.56989 108.43129 37025 ft 510 kts 107°
2026-05-06 20:19 26.55194 108.50768 37016 ft 506 kts 107°
2026-05-06 20:19 26.53435 108.58359 37016 ft 505 kts 107°
2026-05-06 20:20 26.51656 108.65950 37013 ft 504 kts 107°
2026-05-06 20:20 26.49901 108.73424 37068 ft 495 kts 107°
2026-05-06 20:21 26.48151 108.80856 36997 ft 491 kts 108°
2026-05-06 20:21 26.46431 108.88137 36970 ft 488 kts 108°
2026-05-06 20:22 26.44697 108.95463 36996 ft 489 kts 108°
2026-05-06 20:22 26.42157 109.02374 36988 ft 476 kts 130°
2026-05-06 20:23 26.39940 109.05062 36987 ft 468 kts 143°
2026-05-06 20:23 26.37473 109.07439 36982 ft 470 kts 143°
2026-05-06 20:23 26.32455 109.12089 36990 ft 469 kts 145°
2026-05-06 20:24 26.27348 109.16692 36995 ft 475 kts 146°
2026-05-06 20:24 26.22165 109.21342 36963 ft 479 kts 145°
2026-05-06 20:25 26.16975 109.25990 36961 ft 479 kts 145°
2026-05-06 20:25 26.11772 109.30643 36925 ft 483 kts 144°
2026-05-06 20:26 26.09149 109.32986 37026 ft 484 kts 143°
2026-05-06 20:26 26.06495 109.35321 36933 ft 490 kts 145°
2026-05-06 20:26 26.01143 109.40122 36956 ft 498 kts 144°
2026-05-06 20:27 25.95700 109.44976 36950 ft 506 kts 144°
2026-05-06 20:27 25.90205 109.49866 36963 ft 507 kts 144°
2026-05-06 20:28 25.84729 109.54734 36962 ft 508 kts 144°
2026-05-06 20:28 25.79168 109.59664 36943 ft 508 kts 144°
2026-05-06 20:29 25.73960 109.64933 36965 ft 511 kts 138°
2026-05-06 20:29 25.68819 109.70371 36970 ft 511 kts 138°
2026-05-06 20:30 25.61110 109.78520 36968 ft 510 kts 138°
2026-05-06 20:31 25.55958 109.83955 36986 ft 511 kts 138°
2026-05-06 20:31 25.50809 109.89384 36981 ft 511 kts 139°
2026-05-06 20:32 25.45660 109.94803 36974 ft 511 kts 138°
2026-05-06 20:32 25.40528 110.00199 36980 ft 507 kts 138°
2026-05-06 20:33 25.35429 110.05554 36982 ft 508 kts 138°
2026-05-06 20:33 25.30308 110.10924 36984 ft 507 kts 138°
2026-05-06 20:34 25.25180 110.16297 36990 ft 508 kts 138°
2026-05-06 20:34 25.20062 110.21669 36986 ft 509 kts 138°
2026-05-06 20:35 25.14946 110.27088 36978 ft 509 kts 138°
2026-05-06 20:35 25.09835 110.32489 36977 ft 508 kts 138°
2026-05-06 20:36 25.04739 110.37868 36987 ft 507 kts 138°
2026-05-06 20:36 24.99640 110.43257 36982 ft 507 kts 138°
2026-05-06 20:37 24.94551 110.48638 36996 ft 508 kts 138°
2026-05-06 20:37 24.89456 110.54022 36988 ft 508 kts 138°
2026-05-06 20:38 24.84349 110.59410 36990 ft 508 kts 138°
2026-05-06 20:38 24.79278 110.64753 36993 ft 508 kts 138°
2026-05-06 20:39 24.74181 110.70118 36996 ft 505 kts 138°
2026-05-06 20:39 24.69078 110.75484 36993 ft 504 kts 138°
2026-05-06 20:40 24.64063 110.80868 36999 ft 504 kts 137°
2026-05-06 20:40 24.59090 110.86224 36996 ft 504 kts 137°
2026-05-06 20:41 24.54086 110.91605 37007 ft 504 kts 137°
2026-05-06 20:41 24.49070 110.96993 37004 ft 504 kts 137°
2026-05-06 20:42 24.44064 111.02363 37008 ft 504 kts 137°
2026-05-06 20:42 24.39046 111.07739 37021 ft 504 kts 137°
2026-05-06 20:43 24.34028 111.13110 37027 ft 504 kts 137°
2026-05-06 20:43 24.29007 111.18477 37036 ft 505 kts 137°
2026-05-06 20:44 24.23982 111.23844 37024 ft 504 kts 137°
2026-05-06 20:44 24.18417 111.28375 37046 ft 496 kts 156°
2026-05-06 20:45 24.12281 111.31898 37000 ft 498 kts 155°
2026-05-06 20:45 24.06104 111.35371 37006 ft 499 kts 156°
2026-05-06 20:46 23.99910 111.38830 37025 ft 500 kts 156°
2026-05-06 20:46 23.93718 111.42284 37020 ft 500 kts 156°
2026-05-06 20:47 23.87516 111.45739 37024 ft 500 kts 156°
2026-05-06 20:47 23.81319 111.49187 37019 ft 500 kts 156°
2026-05-06 20:48 23.76163 111.52054 37014 ft 500 kts 156°
2026-05-06 20:48 23.69966 111.55496 37024 ft 500 kts 156°
2026-05-06 20:49 23.63783 111.58927 37020 ft 500 kts 156°
2026-05-06 20:49 23.57577 111.62365 37022 ft 500 kts 156°
2026-05-06 20:50 23.51378 111.65797 37016 ft 500 kts 156°
2026-05-06 20:50 23.45194 111.69218 37009 ft 500 kts 156°
2026-05-06 20:51 23.38974 111.72656 37025 ft 502 kts 156°
2026-05-06 20:51 23.32785 111.76076 37020 ft 502 kts 156°
2026-05-06 20:52 23.26538 111.79566 37019 ft 503 kts 151°
2026-05-06 20:52 23.23776 111.81841 37006 ft 506 kts 136°
2026-05-06 20:52 23.21503 111.84821 37033 ft 508 kts 123°
2026-05-06 20:52 23.19943 111.88197 37011 ft 507 kts 108°
2026-05-06 20:53 23.19022 111.91893 37043 ft 507 kts 102°
2026-05-06 20:53 23.17375 111.99371 37027 ft 508 kts 102°
2026-05-06 20:54 23.15799 112.06856 37027 ft 508 kts 101°
2026-05-06 20:54 23.14230 112.14354 37032 ft 508 kts 102°
2026-05-06 20:55 23.12659 112.21839 37038 ft 508 kts 102°
2026-05-06 20:55 23.11084 112.29330 37046 ft 509 kts 102°
2026-05-06 20:56 23.09511 112.36794 37027 ft 508 kts 102°
2026-05-06 20:56 23.07932 112.44265 37036 ft 508 kts 102°
2026-05-06 20:57 23.06803 112.51813 37047 ft 505 kts 92°
2026-05-06 20:57 23.06283 112.59429 37032 ft 506 kts 92°
2026-05-06 20:58 23.05769 112.67028 37038 ft 506 kts 92°
2026-05-06 20:58 23.05250 112.74659 37037 ft 506 kts 92°
2026-05-06 20:59 23.04730 112.82274 37039 ft 506 kts 92°
2026-05-06 20:59 23.04207 112.89865 37035 ft 506 kts 92°
2026-05-06 21:00 23.03679 112.97484 37036 ft 506 kts 92°
2026-05-06 21:00 23.03151 113.05045 37039 ft 506 kts 92°
2026-05-06 21:01 23.01857 113.12530 37023 ft 506 kts 114°
2026-05-06 21:01 23.00146 113.15841 37037 ft 506 kts 128°
2026-05-06 21:01 22.97788 113.18655 37037 ft 503 kts 141°
2026-05-06 21:01 22.95000 113.20894 37012 ft 498 kts 155°
2026-05-06 21:02 22.91851 113.22372 37050 ft 491 kts 165°
2026-05-06 21:02 22.85372 113.24793 37036 ft 492 kts 166°
2026-05-06 21:03 22.78856 113.27093 36962 ft 492 kts 166°
2026-05-06 21:03 22.75611 113.28220 36716 ft 490 kts 166°
2026-05-06 21:03 22.72381 113.29339 36290 ft 486 kts 166°
2026-05-06 21:03 22.69143 113.30460 35238 ft 495 kts 166°
2026-05-06 21:04 22.65827 113.31608 34228 ft 503 kts 166°
2026-05-06 21:04 22.62497 113.32760 33479 ft 503 kts 166°
2026-05-06 21:04 22.59163 113.33913 32606 ft 503 kts 166°
2026-05-06 21:04 22.55832 113.35064 31914 ft 500 kts 165°
2026-05-06 21:05 22.52527 113.36206 31022 ft 501 kts 165°
2026-05-06 21:05 22.49180 113.37362 30162 ft 502 kts 165°
2026-05-06 21:05 22.45865 113.38506 29233 ft 500 kts 165°
2026-05-06 21:05 22.42546 113.39650 28037 ft 505 kts 165°
2026-05-06 21:06 22.39223 113.40796 27296 ft 496 kts 165°
2026-05-06 21:06 22.35971 113.41917 26672 ft 485 kts 165°
2026-05-06 21:06 22.32788 113.43013 25954 ft 478 kts 165°
2026-05-06 21:06 22.29638 113.44097 25254 ft 472 kts 165°
2026-05-06 21:07 22.26530 113.45167 24559 ft 466 kts 165°
2026-05-06 21:07 22.23468 113.46220 23892 ft 460 kts 165°
2026-05-06 21:07 22.20440 113.47322 23059 ft 458 kts 164°
2026-05-06 21:07 22.17435 113.48426 22298 ft 453 kts 164°
2026-05-06 21:08 22.14474 113.49509 21697 ft 448 kts 164°
2026-05-06 21:08 22.11524 113.50586 21044 ft 446 kts 164°
2026-05-06 21:08 22.08594 113.51654 20519 ft 441 kts 164°
2026-05-06 21:08 22.05750 113.52691 20277 ft 428 kts 164°
2026-05-06 21:09 22.02962 113.53707 20040 ft 417 kts 164°
2026-05-06 21:09 22.00243 113.54697 19820 ft 407 kts 164°
2026-05-06 21:09 21.97627 113.55763 19495 ft 402 kts 159°
2026-05-06 21:09 21.95067 113.56970 18995 ft 401 kts 159°
2026-05-06 21:10 21.92527 113.58148 18566 ft 392 kts 159°
2026-05-06 21:10 21.90164 113.59560 17817 ft 392 kts 142°
2026-05-06 21:10 21.88419 113.61786 17057 ft 390 kts 120°
2026-05-06 21:10 21.87577 113.64541 16304 ft 388 kts 97°
2026-05-06 21:11 21.87603 113.67422 15593 ft 384 kts 82°
2026-05-06 21:11 21.88285 113.70134 14904 ft 379 kts 66°
2026-05-06 21:11 21.89667 113.72560 14220 ft 374 kts 48°
2026-05-06 21:11 21.91622 113.74351 13509 ft 367 kts 29°
2026-05-06 21:12 21.93925 113.75355 12792 ft 359 kts 10°
2026-05-06 21:12 21.96380 113.75659 12117 ft 352 kts
2026-05-06 21:12 21.98832 113.75947 11455 ft 348 kts
2026-05-06 21:12 22.01218 113.76253 10809 ft 344 kts
2026-05-06 21:13 22.03551 113.76566 10200 ft 340 kts
2026-05-06 21:13 22.05864 113.76884 9734 ft 331 kts
2026-05-06 21:13 22.08115 113.77202 9254 ft 322 kts
2026-05-06 21:13 22.10298 113.77418 8828 ft 309 kts 353°
2026-05-06 21:14 22.12294 113.76804 8506 ft 292 kts 332°
2026-05-06 21:14 22.14106 113.75874 7964 ft 290 kts 333°
2026-05-06 21:14 22.15935 113.74965 7413 ft 288 kts 333°
2026-05-06 21:14 22.17747 113.74064 6914 ft 286 kts 333°
2026-05-06 21:15 22.19548 113.73166 6402 ft 284 kts 334°
2026-05-06 21:15 22.21451 113.72693 5865 ft 284 kts
2026-05-06 21:15 22.23280 113.73391 5337 ft 281 kts 36°
2026-05-06 21:15 22.24853 113.74644 4769 ft 281 kts 35°
2026-05-06 21:16 22.26415 113.75876 4269 ft 276 kts 45°